Location: Bouhy
(47.4858°N, 3.1657°E)
Time: 02:42:27
(UTC+00:00)

Daily predictions for brighter satellites

Satellite Brightness Start Highest point End
(mag) Time Altitude Azimuth Time Altitude Azimuth Time Altitude Azimuth
Cosmos 2263 Rocket 4.4 03:01:26 21° ENE 03:01:26 21° ENE 03:03:51 10° NE
ATLAS 3B R/B 3.7 03:30:35 38° NNE 03:31:10 38° NE 03:37:44 10° ESE
Lacrosse 4 Rocket 4.3 03:38:11 15° ESE 03:38:11 15° ESE 03:39:02 10° ESE
ALOS 3.8 03:49:55 10° NNE 03:53:16 33° ENE 03:53:16 33° ENE
NOSS 3-2 (C) 4.0 04:00:07 67° SSW 04:00:07 67° SSW 04:08:01 10° SSE
NOSS 3-4 (A) 3.7 04:00:50 59° SE 04:01:12 61° ESE 04:07:23 10° NE
NOSS 3-4 (C) 3.7 04:00:54 59° SE 04:01:19 60° ESE 04:07:30 10° NE
CENTAUR R/B 3.1 04:01:36 69° SW 04:01:36 69° SW 04:10:19 10° SSE
Cosmos 158 Rocket 4.5 04:10:38 53° E 04:10:38 53° E 04:15:12 10° SE
SL-4 R/B 4.1 04:15:02 23° ENE 04:15:02 23° ENE 04:16:35 10° ENE
Cosmos 1151 Rocket 4.5 04:17:01 31° SE 04:17:01 31° SE 04:19:28 10° SSE
Cosmos 1782 4.4 04:16:34 34° ENE 04:16:39 34° ENE 04:20:20 10° SE
ATLAS 2AS CENTAUR R/B 3.2 04:15:30 23° SSW 04:20:47 70° ESE 04:28:36 10° NE
Cosmos 1680 Rocket 4.1 04:20:02 41° NNE 04:21:33 55° ENE 04:26:45 10° SE
Cosmos 2297 Rocket 4.4 04:30:30 11° N 04:30:30 11° N 04:31:00 10° N
Atlas Centaur 2 4.5 04:26:41 13° SSW 04:28:32 15° S 04:31:40 10° SE
ATLAS 5 CENTAUR R/B 3.9 04:31:19 19° NNE 04:31:19 19° NNE 04:32:05 10° NNE
RESURS DK-1 4.3 04:27:59 10° S 04:31:36 29° ESE 04:35:14 10° NE
ATLAS CENTAUR R/B 2.5 04:32:06 36° NE 04:32:06 36° NE 04:35:26 10° ESE
Lacrosse 5 2.1 04:32:03 59° S 04:32:41 66° SE 04:37:43 10° NE
ADEOS 3.6 04:28:57 10° NNE 04:34:13 77° ESE 04:39:26 10° S
Cosmos 1328 Rocket 3.7 04:35:39 72° SE 04:35:39 72° SE 04:39:45 10° SSE
Cosmos 2112 Rocket 4.3 04:38:54 32° N 04:41:21 69° ENE 04:46:41 10° SSE
Cosmos 2263 Rocket 2.3 04:43:11 53° NW 04:43:11 53° NW 04:48:21 10° NNE
Gbstr 26 Del rocket 3.2 04:43:34 55° ESE 04:43:34 55° ESE 04:46:40 10° ESE
SJ 16-02 1.5 04:45:52 62° N 04:45:52 62° N 04:49:38 10° NNE
Cosmos 1898 Rocket 4.1 04:47:32 10° S 04:52:44 57° ESE 04:57:59 10° NNE
Meteor 1-26 Rocket 4.1 04:48:59 21° NNW 04:52:55 73° W 04:58:31 10° S
FALCON 9 DEB 3.7 04:56:35 51° ESE 04:56:35 51° ESE 04:59:17 10° ENE
FALCON 9 DEB 3.7 04:56:45 51° E 04:56:45 51° E 04:59:25 10° ENE
Cosmos 1766 Rocket 4.5 04:58:03 35° NNW 04:58:03 35° NNW 05:00:47 10° N
FENGYUN 3A 3.6 04:53:44 10° N 04:59:05 60° WNW 05:04:23 10° SSW
Cosmos 1408 Rocket 3.5 04:57:51 10° S 05:02:19 89° W 05:06:48 10° N
Cosmos 2181 Rocket 3.9 04:57:56 10° NNW 05:04:03 62° W 05:10:05 10° S
USA 307 3.9 05:05:08 33° NNW 05:05:44 34° N 05:09:42 10° ENE
COSMO-SKYMED 1 2.4 05:01:34 10° S 05:05:53 77° WSW 05:07:59 30° NNW
Cosmos 1709 Rocket 4.2 05:01:02 10° SSW 05:07:08 48° WNW 05:13:18 10° N
Cosmos 1937 Rocket 4.1 05:04:46 10° S 05:09:48 58° ESE 05:14:55 10° NNE
USA 308 3.9 05:11:14 31° NNW 05:12:07 35° N 05:16:06 10° ENE
Lacrosse 4 Rocket 2.8 05:14:32 25° SW 05:14:32 25° SW 05:17:13 10° S
Meteor 2-3 Rocket 3.8 05:08:47 10° SSW 05:14:23 55° WNW 05:20:06 10° N
CZ-4C R/B 2.0 05:11:05 14° SW 05:15:22 89° SE 05:21:26 10° NE
MOS 1 Rocket 3.9 05:11:35 10° SSE 05:16:19 61° ENE 05:21:24 10° N
Cosmos 1943 4.4 05:17:53 23° WSW 05:17:53 23° WSW 05:21:18 10° SSW
CZ-4B R/B 3.0 05:13:12 10° NNE 05:17:44 87° WNW 05:22:08 10° SSW
Cosmos 1689 Rocket 2.6 05:16:03 10° S 05:18:12 44° SSW 05:18:12 44° SSW
FALCON 9 DEB 2.8 05:18:33 66° SW 05:18:56 87° SSE 05:22:11 10° ENE
Meteor 1-10 Rocket 4.4 05:14:53 10° N 05:20:28 71° ENE 05:26:03 10° SSE
ATLAS 3B R/B 2.7 05:17:52 24° NW 05:22:19 68° WSW 05:29:27 10° SSE
SAR-Lupe-4 3.9 05:19:20 10° S 05:22:38 43° WSW 05:22:38 43° WSW
Aureole 2 Rocket 3.8 05:21:29 10° S 05:23:45 29° ESE 05:26:03 10° NE
Cosmos 1862 3.5 05:23:02 10° S 05:27:05 74° E 05:31:09 10° NNE
Genesis I 3.0 05:24:54 14° SW 05:28:08 90° NW 05:32:01 10° NE
YAOGAN 6 4.0 05:25:05 10° NNE 05:28:24 38° E 05:31:40 10° SSE
deb Chang Zheng 4 3.9 05:27:22 10° N 05:31:28 41° WNW 05:35:33 10° SW
ALOS 3.0 05:27:33 10° N 05:31:33 29° WNW 05:31:45 28° WNW
Cosmos 858 Rocket 4.5 05:28:52 10° SSW 05:34:05 89° E 05:39:22 10° NNE
Cosmos 990 Rocket 4.0 05:30:17 10° SW 05:35:26 58° WNW 05:40:40 10° NNE
Cosmos 2074 Rocket 3.9 05:30:51 10° SSW 05:37:01 68° W 05:43:14 10° N
PSLV R/B 4.1 05:33:25 10° NNE 05:37:17 67° E 05:41:03 10° S
ASTRO F (AKARI) 4.1 05:36:09 10° NNE 05:39:16 90° E 05:42:25 10° SSW
USA 305 3.8 05:38:55 22° NW 05:41:07 38° NNE 05:45:10 10° E
Meteor 1-31 Rocket 3.9 05:37:59 10° N 05:40:29 24° NW 05:40:29 24° NW
BREEZE M DEB (TANK) 3.8 05:33:45 10° SW 05:41:35 43° SSE 05:44:27 10° E
Cosmos 405 Rocket 2.5 05:39:12 10° SSW 05:42:53 83° W 05:46:40 10° N
Cosmos 1812 2.7 05:43:08 10° NNW 05:46:57 61° W 05:50:44 10° S
EO 1 Delta rocket 3.9 05:42:12 10° S 05:47:11 61° W 05:51:46 10° NNW
Cosmos 2228 Rocket 3.0 05:45:05 10° NNW 05:49:29 63° W 05:53:49 10° S
USA 306 3.7 05:47:01 20° NW 05:49:36 40° NNE 05:53:40 10° E
Cosmos 1515 Rocket 4.3 05:46:48 15° NW 05:49:53 31° W 05:53:49 10° SSW
CENTAUR R/B 4.4 05:48:50 16° W 05:51:15 18° WSW 05:56:43 10° SW
NOSS 3-4 (A) 4.0 05:48:19 17° W 05:52:26 37° NNW 05:58:26 10° NE
NOSS 3-4 (C) 4.0 05:48:24 17° W 05:52:33 37° NNW 05:58:34 10° NE
Cosmos 1782 4.0 05:52:15 21° WNW 05:52:45 21° W 05:55:48 10° SW
SL-4 R/B 2.4 05:50:37 22° WNW 05:52:48 45° N 05:56:20 10° E
DMSP B5D1-3 4.5 05:48:46 10° S 05:53:53 69° WSW 05:59:03 10° NNW
Cosmos 2184 Rocket 4.1 05:48:26 10° SSW 05:54:36 54° WNW 06:00:51 10° N
USA-17 4.3 05:51:35 10° SW 05:55:12 62° NW 05:58:16 10° NE
USA 234 4.0 05:52:07 10° ENE 05:58:33 57° SE 06:04:58 10° SW
FALCON 9 DEB 3.2 05:56:59 21° W 05:58:50 49° NNW 06:01:59 10° ENE
Spot 2 4.4 05:54:27 10° NNE 05:59:39 81° WNW 06:04:43 10° SSW
Cosmos 1844 Rocket 2.7 05:55:33 10° SW 06:01:06 58° WNW 06:06:44 10° NNE
FALCON 9 DEB 4.0 05:59:52 18° NW 06:02:07 39° NNE 06:05:25 10° E
Cosmos 1707 Rocket 3.7 06:02:10 10° N 06:06:31 76° E 06:10:50 10° SSE
EXPRESS MD2 4.0 06:03:36 16° WNW 06:06:42 86° SSW 06:14:33 10° ESE
MOS 1-B 4.4 06:02:43 10° NNE 06:08:35 88° ESE 06:14:24 10° SSW
COSMOS 2455 3.0 06:03:11 10° SSW 06:09:13 83° ESE 06:15:17 10° NE
RESURS DK-1 3.1 06:05:49 10° WSW 06:09:34 32° NW 06:13:21 10° NNE
ATLAS CENTAUR R/B 2.4 06:08:18 15° WNW 06:10:34 26° WSW 06:13:53 10° S
BREEZE-M DEB 4.2 06:02:56 13° WNW 06:11:03 43° SW 06:14:14 10° SSE
NOAA 6 4.0 06:06:35 10° NNE 06:11:43 78° WNW 06:16:49 10° SSW
ATLAS 2AS CENTAUR R/B 3.4 06:04:49 10° WSW 06:12:19 43° NW 06:19:38 10° NE
ERBS 4.3 06:11:05 12° NW 06:12:50 16° N 06:14:59 10° NE
Cosmos 1500 Rocket 4.2 06:10:25 10° SW 06:14:17 32° WNW 06:18:12 10° N
H-2A R/B 3.3 06:10:41 10° N 06:14:17 36° WNW 06:17:51 10° SW
Cosmos 1844 3.7 06:09:35 10° SW 06:15:01 55° WNW 06:20:32 10° NNE
Lacrosse 5 2.4 06:11:18 11° W 06:15:56 40° NNW 06:20:44 10° NE
Atlas Centaur 2 4.5 06:14:16 10° SW 06:16:23 12° SSW 06:18:22 10° S
CZ-4B DEB 4.2 06:11:25 10° N 06:16:52 71° WNW 06:22:18 10° SSW
Cosmos 1437 Rocket 3.0 06:13:27 10° NNW 06:17:05 44° W 06:20:40 10° SSW
Cosmos 372 Rocket 3.9 06:13:24 10° SSW 06:18:29 74° WNW 06:23:36 10° NNE
Okean O Rocket 1.9 06:15:59 10° NNE 06:20:28 77° ESE 06:24:55 10° S
Cosmos 1242 Rocket 3.7 06:18:35 10° N 06:22:06 44° ENE 06:25:37 10° SSE
Geosat 4.3 06:17:11 10° SE 06:22:11 73° ENE 06:27:13 10° NNW
PAYLOAD B 4.2 06:17:47 10° NNE 06:23:19 76° WNW 06:28:47 10° SSW
SMAP 3.1 06:19:28 10° NNE 06:24:10 86° WNW 06:28:49 10° SSW
SJ 16-02 3.2 06:22:57 10° WNW 06:24:33 12° NW 06:26:18 10° NNW
USA 81 4.1 06:19:21 10° S 06:24:37 87° W 06:29:55 10° N
Cosmos 2263 Rocket 3.9 06:25:09 10° WNW 06:28:03 14° NW 06:30:59 10° N
ATLAS 5 CENTAUR R/B 2.3 06:27:37 10° SSW 06:31:34 55° SE 06:36:01 10° NE
FALCON 9 DEB 3.7 06:29:16 10° W 06:32:17 37° NNW 06:35:20 10° NE
FALCON 9 DEB 3.7 06:29:21 10° W 06:32:22 36° NNW 06:35:24 10° NE
Sich 1 3.3 06:30:36 10° SSW 06:34:54 49° WNW 06:39:14 10° N
Cosmos 2218 Rocket 4.3 06:28:47 10° S 06:35:02 78° E 06:41:15 10° NNE
CZ-2C R/B 2.7 06:30:29 10° S 06:35:57 69° WSW 06:41:20 10° NNW
AQUARIUS 4.1 06:33:24 10° N 06:37:54 71° WNW 06:42:22 10° SSW
H-2A R/B 2.8 06:34:44 10° N 06:38:19 37° WNW 06:41:50 10° SW
Envisat 3.4 06:33:38 10° N 06:38:26 43° WNW 06:43:12 10° SW
Cosmos 2366 rocket 4.2 06:33:05 10° S 06:39:24 81° E 06:45:43 10° N
